Showing default

STERNULA-1, 55044

Orbit data source: Space-Track

STERNULA-1, 55044 is a payload satellite owned by Sternula (DK) in LEO that was launched on Tue, 03 Jan 2023 UTC via an FALCON 9 launch vehicle from the Air Force Eastern Test Range (AFETR). Payloads include a variety of satellites, spacecraft, and rockets equipped with specific instruments for various scientific and technological missions. These include communications satellites like Starlink; space stations such as the ISS; scientific satellites like the Hubble; Earth observation satellites from companies like Planet Labs, Umbra, and HawkEye 360; GPS; miniature CubeSats for education and research; and military/defense satellites.

Not visible in the next 10 days
STERNULA-1 details
Identifier
55044, 2023-001AM
Orbit
LEO
Last TLE update3 weeks ago
Origin
Flag of DKSternula (DK / DEN)
ManufacturerSpace Inventor
MissionDecayed Commercial Communications
Bus & MotorCUBESAT 6U, Unknown motor
Mass10 kg wet, 10 kg dry
Launch date (UTC)
2023-01-03 (2 years ago)
Launch vehicle
FALCON 9
Launch site
Air Force Eastern Test Range (AFETR)
Object type
Payload
Rocket body
Debris
Shape & HBRBox + 1 Ant, 0.6 m
Radar Cross Section0.093 m², Medium (>0.1 m² and < 1m²)

Expand to show TLE details & history

TLE from 3 weeks ago
0 STERNULA-1
1 55044U 23001AM  25007.32433407  .16698733  25718-5  38004-3 0  9993
2 55044  97.3682  82.0740 0009796 264.5771  95.4414 16.45838972112452
Epoch: 2025-01-07T07:47Z
Definitive object data (Epoch: 2025-01-07T07:47:02.463Z)
Latitude-0.00005°
Longitude-141.81939°
Altitude154.189 km
Speed7.813 km/s
True Right ascension05h 28m 17s
True Declination0° 00' 00"
Sunlit
Object was in full shadow at TLE epoch
Visualization observer readout
Observer readout values are unavailable because the object's trajectory could not be propagated. This is usually caused when the trajectory data is faulty or the object's orbit has decayed.
Visualization observer readout
Observer readout values are unavailable because the object's trajectory could not be propagated. This is usually caused when the trajectory data is faulty or the object's orbit has decayed.
Orbital elements
Apogee altitude153.507 km
Perigee altitude140.722 km
Semi-major axis6,525.252 km
Eccentricity0.0009796
Inclination97.3682°
RAAN82.074°
Arg. of periapsis264.5771°
True anomaly95.55313°
Mean anomaly95.4414°
Eccentric anomaly95.49727°
Mean motion4.11763 °/min
BSTAR0.00038004
Orbital period87.43 mins
Loading maneuver chart data...
Loading historical data...
Loading historical data...
Loading historical data...
Loading historical data...
Loading historical data...
Loading historical data...
Loading historical data...

STERNULA-1 Visibility forecast

Observer location: undefined°, undefined

STERNULA-1 is not visible in the next 10 days
Span
Click to sort rows by Start time (UTC) header in descending order
Start Az.
Max El. time (UTC)
Max El. Az.
Max El.
End time (UTC)
End Az.
|